Cozumel, Mexico

12:07 AM on March 30, 2017 (GMT +0000)
Cozumel International

Weather History for MMCZ - March, 2013

Change the Weather History Date:

Monday, March 4, 2013

  Actual Average Record
Temperature  
Mean Temperature 62 °F -  
Max Temperature 73 °F 83 °F 87 °F (1997)
Min Temperature 50 °F 71 °F 50 °F (2013)
Degree Days  
Heating Degree Days 4    
Growing Degree Days 12 (Base 50)    
Moisture  
Dew Point 48 °F    
Average Humidity 60    
Maximum Humidity 77    
Minimum Humidity 46    
Precipitation  
Precipitation 0.00 in - - ()
Sea Level Pressure  
Sea Level Pressure 30.13 in    
Wind  
Wind Speed 4 mph ()    
Max Wind Speed 8 mph    
Max Gust Speed -    
Visibility 7.6 miles    
Events      
Averages and records for this station are not official NWS values.
T = Trace of Precipitation, MM = Missing Value Source: Averaged Metar Reports

Daily Weather History Graph

Daily Weather History Graph

Search for Another Location

Airport or City:

Trip Planner

Search our weather history database for the weather conditions in past years. The results will help you decide how hot, cold, wet, or windy it might be!

Date:

Astronomy

Mar. 04, 2013 Rise Set
Actual Time 6:05 AM CST 5:53 PM CST
Civil Twilight 5:43 AM CST 6:15 PM CST
Nautical Twilight 5:17 AM CST 6:41 PM CST
Astronomical Twilight 4:51 AM CST 7:07 PM CST
Moon No Moon Rise 11:06 AM CST (3/4)
Length of Visible Light 12h 32m
Length of Day
11h 48m
Waning Gibbous, 52% of the Moon is Illuminated
Mar 4
Waning Gibbous
Mar 4
Last Quarter
Mar 11
New
Mar 19
First Quarter
Mar 27
Full

Hourly Weather History & Observations

Time (CST) Temp. Dew Point Humidity Pressure Visibility Wind Dir Wind Speed Gust Speed Precip Events Conditions
12:42 AM 59.0 °F 46.4 °F 63% 30.20 in 8.0 mi North 6.9 mph - N/A   Clear
1:50 AM 57.2 °F 42.8 °F 59% 30.18 in 7.0 mi NNE 5.8 mph - N/A   Clear
2:43 AM 57.2 °F 42.8 °F 59% 30.19 in 7.0 mi NE 3.5 mph - N/A   Clear
3:55 AM 55.4 °F 44.6 °F 67% 30.16 in 7.0 mi NE 4.6 mph - N/A   Clear
5:07 AM 53.6 °F 44.6 °F 72% 30.16 in 7.0 mi Calm Calm - N/A   Clear
5:46 AM 50.0 °F 42.8 °F 76% 30.12 in 7.0 mi Calm Calm - N/A   Clear
6:49 AM 55.4 °F 48.2 °F 77% 30.18 in 7.0 mi North 3.5 mph - N/A   Clear
7:43 AM 64.4 °F 50.0 °F 59% 30.19 in 8.0 mi NE 4.6 mph - N/A   Clear
8:46 AM 68.0 °F 51.8 °F 56% 30.23 in 8.0 mi NE 3.5 mph - N/A   Clear
9:40 AM 69.8 °F 50.0 °F 49% 30.20 in 8.0 mi Calm Calm - N/A   Partly Cloudy
10:43 AM 73.4 °F 57.2 °F 57% 30.18 in 8.0 mi NNW 6.9 mph - N/A   Scattered Clouds
11:41 AM 69.8 °F 50.0 °F 49% 30.12 in 8.0 mi SE 3.5 mph - N/A   Scattered Clouds
12:46 PM 71.6 °F 51.8 °F 50% 30.11 in 8.0 mi ENE 4.6 mph - N/A   Scattered Clouds
1:52 PM 71.6 °F 50.0 °F 46% 30.08 in 8.0 mi East 8.1 mph - N/A   Scattered Clouds
2:40 PM 71.6 °F 50.0 °F 46% 30.10 in 8.0 mi SE 8.1 mph - N/A   Scattered Clouds
3:40 PM 73.4 °F 51.8 °F 47% 30.05 in 8.0 mi ESE 6.9 mph - N/A   Scattered Clouds
4:40 PM 71.6 °F 50.0 °F 46% 30.06 in 8.0 mi ESE 5.8 mph - N/A   Scattered Clouds
5:40 PM 68.0 °F 48.2 °F 49% 30.04 in 8.0 mi ESE 5.8 mph - N/A   Partly Cloudy
6:40 PM 62.6 °F 48.2 °F 59% 30.09 in 8.0 mi East 3.5 mph - N/A   Clear
7:40 PM 59.0 °F 48.2 °F 67% 30.10 in 8.0 mi East 3.5 mph - N/A   Clear
8:40 PM 57.2 °F 48.2 °F 72% 30.14 in 8.0 mi East 3.5 mph - N/A   Clear
9:42 PM 57.2 °F 46.4 °F 67% 30.13 in 7.0 mi Calm Calm - N/A   Clear
10:47 PM 55.4 °F 46.4 °F 72% 30.12 in 7.0 mi SE 3.5 mph - N/A   Clear
11:41 PM 53.6 °F 46.4 °F 77% 30.09 in 7.0 mi ESE 3.5 mph - N/A   Clear